Skip Page Navigation
NASA JPL Caltech
NASA Logo - Jet Propulsion Laboratory + View the NASA Portal
+ Center for Near-Earth Object Studies
JPL Home Earth Solar System Stars & Galaxies Technology
JPL Solar System Dynamics
BODIES ORBITS EPHEMERIDES TOOLS PHYSICAL DATA DISCOVERY FAQ SITE MAP
JPL Small-Body Database Browser
Search: [ help ]  
212428 (2006 OX1)
Classification: Main-belt Asteroid          SPK-ID: 2212428
Ephemeris | Orbit Diagram | Orbital Elements | Mission Design | Physical Parameters | Discovery Circumstances | Close-Approach Data ]

[ show orbit diagram ]
Orbital Elements at Epoch 2459000.5 (2020-May-31.0) TDB
Reference: JPL 13 (heliocentric ecliptic J2000)
 Element Value Uncertainty (1-sigma)   Units 
e .1974889199567478 5.1382e-08  
a 2.387771973149077 2.4117e-08 au
q 1.916213465068873 1.178e-07 au
i 2.161830565340837 6.093e-06 deg
node 54.24220049371556 0.00014035 deg
peri 278.0375572751552 0.00014203 deg
M 248.6917454652505 3.1191e-05 deg
tp 2459417.189516349984
(2021-Jul-21.68951635)
0.00012232 TDB
period 1347.682851671731
3.69
2.0418e-05
5.59e-08
d
yr
n .2671251619425435 4.0471e-09 deg/d
Q 2.85933048122928 2.888e-08 au
  Orbit Determination Parameters
   # obs. used (total)      251  
   data-arc span      5992 days (16.41 yr)  
   first obs. used      2003-11-29  
   last obs. used      2020-04-25  
   planetary ephem.      DE431  
   SB-pert. ephem.      SB431-N16  
   condition code      0  
   norm. resid. RMS      .62336  
   source      ORB  
   producer      Otto Matic  
   solution date      2020-May-21 08:46:00  

Additional Information
 Earth MOID = .90726 au 
 Jupiter MOID = 2.50421 au 
 T_jup = 3.506 
[ show covariance matrix ]

Ephemeris | Orbit Diagram | Orbital Elements | Mission Design | Physical Parameters | Discovery Circumstances | Close-Approach Data ]

Physical Parameter Table
Parameter Symbol Value Units Sigma Reference Notes
absolute magnitude H 16.8   n/a MPO470278  

212428 (2006 OX1)          Discovered 2006-Jul-18 by Broughton, J. at Reedy Creek
Reference: 20090409/Numbers.arcLast Updated: 2009-04-10

[ hide close-approach data ]
Close-Approach Data   ...sorted by Date/Time (TDB)
Date/Time (TDB) Time Uncertainty
(days_HH:MM)
Body Nominal Distance (au) Minimum Distance (au) Maximum Distance (au) V-relative (km/s) V-infinity (km/s) JD (TDB) Time Uncertainty (minutes) Semi-major axis (km) Semi-minor axis (km) range-LOV angle (deg) N-sigma BP Orbit Ref. Reference Modified
1974-Nov-10 02:47 00:02 David 0.0391819962042983 0.0391803878276671 0.0391836060263682 5.54890966798153 5.54890959849689 2442361.615833818 1.81648036538481 422.644339457037 34.2989346442981 -80.0892420535834 168281.916521934 T 13 CATAB v2.0f-lin.ifort 2020-May-21 08:46:19 2020-May-21 08:46

Alternate Designations
 2006 OX1 = 2003 YL164 
Ephemeris | Orbit Diagram | Orbital Elements | Mission Design | Physical Parameters | Discovery Circumstances | Close-Approach Data ]
ABOUT SSD CREDITS/AWARDS PRIVACY/COPYRIGHT GLOSSARY LINKS
FirstGov 2020-Jul-02 20:08 UT
(server date/time)  
NASA Home Page
Site Manager:   Ryan S. Park
Webmaster  Alan B. Chamberlin